[[{"header":{"parameterUnit":"m.s-1","parameterCategory":2,"la1":30.2991,"la2":30.254,"lo1":-89.0895,"lo2":-89.0444,"dy":0.0017,"dx":0.0017,"nx":28,"ny":28,"refTime":"2025-07-31T03:00:00:Z","depth":"0","parameterNumber":2,"parameterNumberName":"U-component_of_CURRENTS"},"data":[0,0,0,0,0,0,0,0,0,0,0,0,0,0,0,0,0,0,0,0,0,0,0,0,0,0,0,0,0,0,0,0,0,0,0,0,0,0,0,0,0,0,0,0,0,0,0,0,0,0,0,0,0,0,0,0,0,0,0.1789,0.1789,0,0.1798,0.1798,0.1798,0.1797,0.1797,0.1797,0.1797,0.1823,0.1824,0.1825,0,0,0,0,0,0,0,0,0,0,0,0,0,0.1754,0.1754,0.1789,0.1789,0.1789,0.1798,0.1798,0.1798,0.1797,0.1797,0.1797,0.1797,0.1823,0.1824,0.1825,0,0,0,0,0,0,0,0,0,0,0,0,0,0.1765,0.1755,0.1789,0.1791,0.1791,0.1798,0.1798,0.1798,0.1797,0.1797,0.1797,0.1797,0.1823,0.1824,0.1825,0.1832,0,0,0.1828,0.1829,0,0,0,0,0,0,0,0,0.1765,0.1767,0.179,0.1791,0.1791,0.1798,0.1795,0.181,0.1797,0.1794,0.1797,0.1797,0.1817,0.1819,0.1818,0.1833,0.1834,0.1828,0.1829,0.1829,0.183,0,0,0,0,0,0,0,0.1764,0.1766,0.1791,0.1791,0.1791,0.1786,0.1787,0.1798,0.1805,0.1794,0.1794,0.1797,0.1817,0.1817,0.1819,0.1834,0.1828,0.1829,0.183,0.183,0.1887,0.1888,0,0,0,0,0,0,0.1767,0.1765,0.1791,0.1791,0.1779,0.1787,0.1788,0.1795,0.1804,0.1806,0.1797,0.1797,0.1815,0.1818,0.182,0.1875,0.1829,0.183,0.1831,0.1886,0.1887,0.1888,0,0,0,0,0,0,0.1766,0.1769,0.179,0.1779,0.1782,0.1788,0.1794,0.1795,0.1795,0.1807,0.1809,0.1797,0.1816,0.1818,0.1839,0.1874,0.1831,0.1832,0.1885,0.1886,0.1888,0.1955,0,0,0,0,0,0,0.1765,0.1769,0.1772,0.178,0.1783,0.1799,0.1794,0.1795,0.1797,0.1797,0.1807,0.181,0.1816,0.1837,0.184,0.1875,0.1832,0.1884,0.1886,0.1887,0.1951,0.1958,0.1964,0,0,0,0,0,0.1764,0.1772,0.1773,0.1776,0.1789,0.18,0.1801,0.1804,0.1797,0.1802,0.1812,0.1809,0.185,0.1839,0.1842,0.1878,0.1883,0.1885,0.1887,0.1948,0.1957,0.1964,0,0,0,0,0,0,0.1759,0.1773,0.1774,0.1786,0.1794,0.18,0.1803,0.1803,0.1812,0.1812,0.1819,0.1823,0.1849,0.185,0.1838,0.1897,0.1867,0.1869,0.1912,0.192,0.1926,0.1916,0.1833,0,0,0,0,0,0.176,0.1768,0.1781,0.1788,0.1793,0.1796,0.18,0.1803,0.1813,0.1816,0.1823,0.1837,0.1859,0.1878,0.1884,0.1921,0.1957,0.1945,0.1951,0.1957,0.195,0.2042,0.2057,0.1895,0.1895,0.1895,0,0,0.1759,0.1767,0.1772,0.1787,0.1791,0.1807,0.1798,0.1806,0.1825,0.1818,0.1842,0.1849,0.1868,0.1907,0.1921,0.1917,0.2028,0.1959,0.1964,0.1953,0.2046,0.2062,0.2076,0.1896,0.1896,0.1896,0,0,0.1764,0.1769,0.178,0.179,0.1802,0.181,0.1813,0.1822,0.1833,0.1857,0.1861,0.1893,0.1914,0.1949,0.1968,0.2012,0.2046,0.2012,0.2056,0.2147,0.2161,0.2174,0.2275,0.2297,0.2032,0.2032,0.2032,0,0.1765,0.1779,0.1784,0.1799,0.1807,0.1813,0.1827,0.1846,0.1862,0.1881,0.187,0.1927,0.194,0.2013,0.2027,0.2029,0.2085,0.2031,0.2158,0.2171,0.2184,0.2283,0.2306,0.2036,0.2035,0.2035,0.2035,0,0.1782,0.1792,0.1798,0.1821,0.1831,0.1843,0.1869,0.1887,0.1897,0.1919,0.1972,0.1998,0.2039,0.2054,0.2054,0.215,0.2164,0.2147,0.2144,0.2205,0.2305,0.2328,0.2041,0.2039,0.2038,0.2037,0,0,0.1801,0.1807,0.1813,0.1821,0.1842,0.1856,0.1892,0.1933,0.1969,0.1997,0.2056,0.2098,0.2113,0.2134,0.2154,0.2228,0.2373,0.2226,0.2229,0.2335,0.2595,0.2648,0.2678,0.2387,0.239,0.2393,0.2644,0,0.1816,0.1834,0.1837,0.1864,0.1878,0.1893,0.1927,0.1967,0.2003,0.2064,0.2117,0.217,0.215,0.2183,0.2256,0.2333,0.243,0.2307,0.251,0.2516,0.2565,0.2705,0.2668,0.2891,0.2666,0.267,0.2672,0,0.1848,0.1853,0.1868,0.1887,0.1895,0.1913,0.197,0.2001,0.2086,0.2118,0.2188,0.2227,0.2341,0.2306,0.2504,0.2431,0.2515,0.2574,0.2586,0.262,0.2611,0.2786,0.2941,0.2797,0.2707,0.2705,0.2702,0,0.1872,0.1886,0.1892,0.1898,0.192,0.1935,0.1953,0.2019,0.2059,0.2162,0.2214,0.2334,0.2417,0.2531,0.2651,0.2596,0.2871,0.282,0.2955,0.296,0.2958,0.2957,0.3001,0.297,0.2969,0.2968,0.2968,0,0.1901,0.1914,0.1901,0.191,0.1927,0.1944,0.1986,0.2024,0.2103,0.217,0.2244,0.2345,0.2475,0.2635,0.2719,0.2936,0.2947,0.3,0.3043,0.2983,0.2981,0.2875,0.2777,0.2978,0.2976,0.2974,0.2972,0,0.1933,0.1923,0.1931,0.1935,0.1936,0.1951,0.1984,0.2021,0.2097,0.2196,0.2235,0.2403,0.2622,0.2766,0.2987,0.305,0.3144,0.3286,0.3214,0.3244,0.3212,0.3119,0.3097,0.3019,0.3496,0.3499,0.3501,0,0.195,0.1953,0.1939,0.1927,0.1923,0.1941,0.1952,0.2011,0.2055,0.2237,0.2293,0.2531,0.2698,0.3062,0.3235,0.3461,0.3274,0.3534,0.3412,0.3247,0.3175,0.2958,0.2875,0.3454,0.3456,0.3457,0.3459,0,0.1971,0.1957,0.1947,0.1921,0.1916,0.1921,0.1946,0.1985,0.2077,0.2186,0.2364,0.252,0.2888,0.3123,0.3421,0.3546,0.3343,0.3575,0.3425,0.3178,0.2925,0.2858,0.3246,0.3473,0.3471,0.347,0.347,0.3469,0.1971,0.1958,0.1925,0.1896,0.1888,0.1886,0.1891,0.1952,0.204,0.2187,0.2364,0.2581,0.2921,0.3353,0.348,0.3603,0.3471,0.352,0.3441,0.325,0.3098,0.3529,0.3776,0.3776,0.3776,0.3776,0.3777,0,0.1944,0.1919,0.1897,0.1853,0.1824,0.1836,0.1868,0.1881,0.1969,0.215,0.2311,0.2655,0.2948,0.3221,0.3471,0.3426,0.3286,0.3341,0.2994,0.2937,0.3375,0.3293,0.3419,0.3419,0.3419,0.342,0.342,0.342,0.1924,0.1878,0.1854,0.1782,0.1758,0.1731,0.174,0.1791,0.1894,0.2083,0.2262,0.2448,0.2742,0.3017,0.3107,0.3124,0.2841,0.2791,0.2691,0.2954,0.2961,0.2966,0.2864,0.29,0.2899,0.2164,0.2159,0.2154]},{"header":{"parameterUnit":"m.s-1","parameterCategory":2,"la1":30.2991,"la2":30.254,"lo1":-89.0895,"lo2":-89.0444,"dy":0.0017,"dx":0.0017,"nx":28,"ny":28,"refTime":"2025-07-31T03:00:00:Z","depth":"0","parameterNumber":3,"parameterNumberName":"V-component_of_CURRENTS"},"data":[0,0,0,0,0,0,0,0,0,0,0,0,0,0,0,0,0,0,0,0,0,0,0,0,0,0,0,0,0,0,0,0,0,0,0,0,0,0,0,0,0,0,0,0,0,0,0,0,0,0,0,0,0,0,0,0,0,0,-0.0773,-0.0774,0,-0.084,-0.084,-0.0841,-0.0911,-0.0912,-0.0913,-0.0914,-0.1097,-0.1101,-0.1105,0,0,0,0,0,0,0,0,0,0,0,0,0,-0.0713,-0.0714,-0.0773,-0.0774,-0.0775,-0.084,-0.0841,-0.0841,-0.0911,-0.0912,-0.0913,-0.0914,-0.1096,-0.1101,-0.1106,0,0,0,0,0,0,0,0,0,0,0,0,0,-0.0755,-0.0714,-0.0773,-0.0817,-0.0822,-0.0839,-0.0841,-0.0842,-0.091,-0.0912,-0.0913,-0.0915,-0.1094,-0.11,-0.1106,-0.1114,0,0,-0.1124,-0.1127,0,0,0,0,0,0,0,0,-0.0753,-0.0757,-0.081,-0.0814,-0.0819,-0.0868,-0.0887,-0.0939,-0.091,-0.0877,-0.0914,-0.0915,-0.1031,-0.1042,-0.105,-0.1123,-0.1131,-0.1125,-0.1129,-0.1131,-0.1133,0,0,0,0,0,0,0,-0.075,-0.0755,-0.0799,-0.081,-0.0816,-0.0836,-0.0844,-0.0896,-0.0947,-0.088,-0.0885,-0.0892,-0.1034,-0.1043,-0.1055,-0.1133,-0.1125,-0.113,-0.1134,-0.1136,-0.1204,-0.1202,0,0,0,0,0,0,-0.074,-0.0752,-0.0797,-0.0801,-0.0789,-0.0836,-0.0844,-0.0851,-0.0944,-0.0958,-0.0891,-0.0895,-0.1032,-0.1048,-0.1062,-0.1048,-0.1131,-0.1137,-0.114,-0.1206,-0.1204,-0.1202,0,0,0,0,0,0,-0.0738,-0.0743,-0.0795,-0.0778,-0.0786,-0.0835,-0.0842,-0.0852,-0.0861,-0.0951,-0.0968,-0.089,-0.1034,-0.1053,-0.1092,-0.1058,-0.1139,-0.1145,-0.1208,-0.1205,-0.1203,-0.1041,0,0,0,0,0,0,-0.0736,-0.0742,-0.0736,-0.0778,-0.0787,-0.0791,-0.0841,-0.0852,-0.0863,-0.0869,-0.0956,-0.0975,-0.1037,-0.1082,-0.1097,-0.1067,-0.115,-0.121,-0.1207,-0.1204,-0.1048,-0.1033,-0.102,0,0,0,0,0,-0.0733,-0.0716,-0.0735,-0.074,-0.078,-0.0789,-0.0795,-0.0836,-0.0861,-0.0852,-0.0908,-0.0972,-0.1072,-0.1085,-0.1104,-0.1075,-0.1212,-0.1208,-0.1204,-0.1055,-0.1036,-0.102,0,0,0,0,0,0,-0.0681,-0.0723,-0.0745,-0.074,-0.0758,-0.0801,-0.0794,-0.0823,-0.0857,-0.0867,-0.0954,-0.0975,-0.0992,-0.1055,-0.1067,-0.1083,-0.1151,-0.115,-0.1031,-0.1014,-0.1,-0.096,-0.1155,0,0,0,0,0,-0.0667,-0.0666,-0.0707,-0.0698,-0.0705,-0.0747,-0.0755,-0.0782,-0.082,-0.0836,-0.0893,-0.0951,-0.0988,-0.1018,-0.1064,-0.1079,-0.1109,-0.1071,-0.1056,-0.1043,-0.1023,-0.1031,-0.1015,-0.1189,-0.1189,-0.1189,0,0,-0.0641,-0.0664,-0.0663,-0.0686,-0.0705,-0.0693,-0.0754,-0.0757,-0.0742,-0.0852,-0.0847,-0.0903,-0.0979,-0.0986,-0.1,-0.1038,-0.1006,-0.1038,-0.1027,-0.1013,-0.1025,-0.1008,-0.0993,-0.1186,-0.1186,-0.1187,0,0,-0.0582,-0.061,-0.0588,-0.0599,-0.0621,-0.0645,-0.0641,-0.0676,-0.0687,-0.0696,-0.0759,-0.0785,-0.0859,-0.0887,-0.0917,-0.0851,-0.0925,-0.0876,-0.0779,-0.0786,-0.0771,-0.0759,-0.0755,-0.0744,-0.0874,-0.0873,-0.0873,0,-0.0548,-0.0531,-0.0579,-0.0558,-0.0552,-0.0616,-0.058,-0.0596,-0.0635,-0.0629,-0.0677,-0.0734,-0.0803,-0.0793,-0.0771,-0.0816,-0.0834,-0.0837,-0.0765,-0.0753,-0.0744,-0.0743,-0.0732,-0.0865,-0.0866,-0.0867,-0.0868,0,-0.0475,-0.046,-0.0443,-0.044,-0.0438,-0.0419,-0.0448,-0.0442,-0.0472,-0.0493,-0.049,-0.0568,-0.0607,-0.0624,-0.0684,-0.0641,-0.0678,-0.0739,-0.0803,-0.0716,-0.0721,-0.0713,-0.0853,-0.0856,-0.0859,-0.0861,0,0,-0.0408,-0.0393,-0.0388,-0.0368,-0.0375,-0.0369,-0.0328,-0.0313,-0.0285,-0.0326,-0.0286,-0.0342,-0.0394,-0.0429,-0.0499,-0.0503,-0.0449,-0.0583,-0.0588,-0.0567,-0.0452,-0.0466,-0.046,-0.0501,-0.0499,-0.0498,-0.0476,0,-0.0335,-0.0275,-0.0281,-0.0215,-0.0191,-0.0214,-0.0171,-0.0167,-0.0181,-0.0162,-0.0219,-0.0231,-0.0319,-0.0342,-0.035,-0.0432,-0.0424,-0.0448,-0.055,-0.0552,-0.0566,-0.0449,-0.0414,-0.0391,-0.0469,-0.0468,-0.0467,0,-0.0268,-0.0238,-0.0163,-0.0114,-0.0101,-0.0068,-0.0018,0.0009,0.0021,0.0009,-0.0003,-0.0066,-0.0077,-0.0176,-0.0232,-0.0247,-0.0324,-0.0383,-0.0385,-0.0449,-0.0551,-0.0497,-0.0375,-0.0487,-0.0455,-0.0456,-0.0457,0,-0.0226,-0.0157,-0.0095,-0.0081,-0.0034,0.0008,0.0033,0.0061,0.0094,0.0106,0.0121,0.0089,0.0059,-0.0018,-0.0154,-0.0193,-0.0214,-0.0295,-0.0366,-0.0369,-0.0382,-0.0389,-0.037,-0.031,-0.031,-0.031,-0.031,0,-0.0165,-0.0119,-0.0073,-0.0046,0.0035,0.0052,0.0134,0.0153,0.0198,0.0253,0.0195,0.0226,0.0094,0.0049,-0.0077,-0.018,-0.0159,-0.0307,-0.0349,-0.0324,-0.0326,-0.0465,-0.0558,-0.0309,-0.0309,-0.0309,-0.031,0,-0.0148,-0.0112,-0.0047,0.0022,0.0049,0.0095,0.0179,0.0239,0.0268,0.034,0.0345,0.0334,0.0283,0.0159,0.0038,-0.0083,-0.0236,-0.0235,-0.0187,-0.0224,-0.0403,-0.0489,-0.0497,-0.0532,-0.0289,-0.0289,-0.0289,0,-0.0136,-0.0102,-0.0019,0.0029,0.0062,0.0135,0.0199,0.0255,0.0319,0.0408,0.0451,0.0439,0.0446,0.0287,0.009,-0.008,-0.0215,-0.0186,-0.0254,-0.0362,-0.049,-0.0525,-0.0556,-0.0202,-0.0202,-0.0201,-0.0201,0,-0.0119,-0.0093,-0.0041,0.0055,0.0128,0.0221,0.0311,0.0376,0.046,0.0539,0.0639,0.0664,0.0524,0.0403,0.0165,0.0012,-0.024,-0.0181,-0.0301,-0.0403,-0.0431,-0.0502,-0.0271,-0.0195,-0.0196,-0.0196,-0.0196,-0.0197,-0.0114,-0.0073,0.0003,0.0092,0.0183,0.0312,0.0406,0.0518,0.065,0.0809,0.0798,0.0891,0.0688,0.0385,0.0157,-0.0202,-0.0221,-0.0314,-0.0401,-0.0419,-0.0464,-0.021,-0.0191,-0.0191,-0.0192,-0.0192,-0.0193,0,-0.0096,-0.0035,0.0047,0.0173,0.0285,0.0333,0.0496,0.0614,0.0792,0.0938,0.1044,0.1037,0.0771,0.0441,-0.0029,-0.0336,-0.0446,-0.0511,-0.0553,-0.0572,-0.0344,-0.0354,-0.0359,-0.0359,-0.0359,-0.0359,-0.0359,-0.0358,-0.0073,0.0005,0.0055,0.0239,0.034,0.052,0.0629,0.0803,0.0942,0.1167,0.1271,0.1311,0.1079,0.0262,-0.0341,-0.0524,-0.0734,-0.0784,-0.0887,-0.0759,-0.0747,-0.0736,-0.0764,-0.0855,-0.0856,-0.1036,-0.1039,-0.1041]}],[{"header":{"parameterUnit":"m.s-1","parameterCategory":2,"la1":30.2991,"la2":30.254,"lo1":-89.0895,"lo2":-89.0444,"dy":0.0017,"dx":0.0017,"nx":28,"ny":28,"refTime":"2025-07-31T03:00:00:Z","depth":"2","parameterNumber":2,"parameterNumberName":"U-component_of_CURRENTS"},"data":[0,0,0,0,0,0,0,0,0,0,0,0,0,0,0,0,0,0,0,0,0,0,0,0,0,0,0,0,0,0,0,0,0,0,0,0,0,0,0,0,0,0,0,0,0,0,0,0,0,0,0,0,0,0,0,0,0,0,0.1122,0.1122,0,0.1117,0.1117,0.1117,0.111,0.111,0.111,0.111,0.1124,0.1124,0.1124,0,0,0,0,0,0,0,0,0,0,0,0,0,0.1107,0.1107,0.1122,0.1122,0.1122,0.1117,0.1117,0.1117,0.111,0.111,0.111,0.111,0.1124,0.1124,0.1125,0,0,0,0,0,0,0,0,0,0,0,0,0,0.1107,0.1107,0.1122,0.1119,0.1119,0.1117,0.1117,0.1117,0.111,0.111,0.111,0.111,0.1123,0.1124,0.1125,0.1128,0,0,0.1126,0.1127,0,0,0,0,0,0,0,0,0.1107,0.1108,0.1119,0.1119,0.1119,0.1115,0.1116,0.1122,0.111,0.1112,0.111,0.111,0.1123,0.1124,0.1121,0.1129,0.113,0.1126,0.1127,0.1127,0.1127,0,0,0,0,0,0,0,0.1107,0.1108,0.1119,0.1119,0.1119,0.1111,0.1111,0.1117,0.1117,0.1112,0.1111,0.1113,0.1123,0.112,0.1121,0.113,0.1126,0.1127,0.1127,0.1127,0.1241,0.1243,0,0,0,0,0,0,0.1112,0.1108,0.1119,0.1119,0.1114,0.1112,0.1112,0.1115,0.1117,0.1117,0.1113,0.1112,0.1119,0.1121,0.1122,0.1219,0.1127,0.1128,0.1128,0.1238,0.1241,0.1244,0,0,0,0,0,0,0.1111,0.1113,0.1119,0.1114,0.1114,0.1112,0.1116,0.1115,0.1128,0.1118,0.1118,0.1128,0.112,0.1121,0.1158,0.1216,0.1128,0.1128,0.1235,0.1239,0.1243,0.1353,0,0,0,0,0,0,0.1111,0.1113,0.113,0.1114,0.1115,0.1139,0.1116,0.1115,0.1128,0.1128,0.1131,0.1131,0.112,0.1158,0.1159,0.1215,0.1129,0.1231,0.1237,0.1241,0.1346,0.136,0.1373,0,0,0,0,0,0.111,0.1125,0.1131,0.1133,0.1135,0.1141,0.1141,0.1138,0.113,0.1147,0.1155,0.1132,0.119,0.116,0.1161,0.1218,0.1229,0.1235,0.1241,0.134,0.1358,0.1372,0,0,0,0,0,0,0.1133,0.1126,0.1132,0.1147,0.1157,0.1141,0.1154,0.115,0.1167,0.1173,0.1157,0.116,0.1217,0.1201,0.1168,0.1267,0.1209,0.1216,0.1285,0.1301,0.1314,0.1313,0.1129,0,0,0,0,0,0.1147,0.1153,0.1154,0.117,0.1175,0.117,0.1175,0.1177,0.1182,0.1189,0.12,0.1215,0.124,0.1256,0.1272,0.1319,0.1322,0.136,0.1373,0.1385,0.1387,0.145,0.1469,0.1264,0.1264,0.1263,0,0,0.1159,0.1158,0.1163,0.1176,0.1178,0.1203,0.1173,0.1191,0.1224,0.119,0.1248,0.1261,0.1263,0.1323,0.1348,0.1319,0.1449,0.1392,0.1402,0.1397,0.1459,0.1478,0.1496,0.1268,0.1267,0.1266,0,0,0.1184,0.1189,0.1206,0.1223,0.124,0.1237,0.1248,0.126,0.1279,0.1327,0.1324,0.1372,0.14,0.1428,0.1437,0.1532,0.1517,0.1544,0.1612,0.1675,0.1692,0.1707,0.1753,0.1771,0.1552,0.1552,0.1552,0,0.1205,0.1225,0.1216,0.1247,0.1265,0.1257,0.1292,0.1312,0.1343,0.1373,0.1362,0.1445,0.1451,0.1527,0.1567,0.1563,0.1588,0.155,0.1692,0.1707,0.1721,0.1763,0.1782,0.1558,0.1557,0.1556,0.1556,0,0.1245,0.1273,0.1285,0.1318,0.1342,0.1367,0.1393,0.1431,0.1448,0.1474,0.1558,0.1578,0.1625,0.1649,0.1634,0.1745,0.1729,0.1701,0.1649,0.1748,0.1787,0.1805,0.1566,0.1564,0.1563,0.1561,0,0,0.1251,0.1302,0.1311,0.1332,0.1382,0.1392,0.1464,0.1515,0.1559,0.1615,0.1683,0.1751,0.1767,0.178,0.1788,0.1845,0.1971,0.1822,0.1823,0.1864,0.2112,0.2034,0.2045,0.1975,0.1978,0.1981,0.2106,0,0.1285,0.1339,0.1369,0.1425,0.1445,0.1482,0.1541,0.1597,0.1643,0.1713,0.1761,0.1826,0.1816,0.1848,0.1913,0.1949,0.202,0.1939,0.2012,0.2014,0.193,0.2063,0.1792,0.1875,0.2122,0.2125,0.2127,0,0.1309,0.1338,0.1403,0.1455,0.1472,0.1521,0.1598,0.1654,0.1754,0.1799,0.1883,0.1912,0.2016,0.198,0.2118,0.207,0.2109,0.2132,0.2137,0.2032,0.1969,0.1814,0.1897,0.2156,0.2154,0.2151,0.215,0,0.1277,0.1351,0.1395,0.1421,0.1496,0.1545,0.159,0.1689,0.1741,0.1862,0.191,0.2026,0.2083,0.2161,0.2223,0.2184,0.2359,0.2302,0.2274,0.2268,0.2032,0.2,0.2413,0.2413,0.2413,0.2413,0.2412,0,0.127,0.1302,0.1386,0.141,0.1468,0.1533,0.1613,0.1681,0.1788,0.1861,0.1953,0.2027,0.2134,0.2233,0.2276,0.2342,0.2412,0.2315,0.2309,0.2064,0.2035,0.2258,0.2239,0.2417,0.2416,0.2415,0.2414,0,0.1213,0.1274,0.1325,0.1421,0.1453,0.1497,0.1607,0.1664,0.1771,0.1869,0.1911,0.2059,0.2204,0.2302,0.2438,0.2399,0.2469,0.2474,0.2176,0.2133,0.2318,0.2303,0.2446,0.2445,0.2443,0.2442,0.2442,0,0.1189,0.1211,0.1319,0.1366,0.1416,0.149,0.1546,0.165,0.1715,0.188,0.1925,0.2099,0.2201,0.2373,0.232,0.2379,0.252,0.22,0.2068,0.2349,0.2329,0.2316,0.2302,0.1809,0.1803,0.1798,0.1795,0,0.1142,0.1192,0.1237,0.134,0.1411,0.147,0.1558,0.1594,0.1722,0.1812,0.1966,0.2061,0.2145,0.208,0.2129,0.2124,0.216,0.2102,0.2504,0.1837,0.1757,0.1734,0.1741,0.1751,0.1756,0.1759,0.1761,0.1763,0.1123,0.1142,0.1231,0.1319,0.1392,0.1463,0.1502,0.1599,0.1692,0.1789,0.1897,0.1928,0.1806,0.1727,0.1737,0.1764,0.1879,0.1819,0.1831,0.1848,0.1746,0.1668,0.1627,0.163,0.1633,0.1636,0.1638,0,0.112,0.1153,0.1214,0.132,0.1377,0.144,0.152,0.1553,0.1652,0.166,0.1754,0.1455,0.137,0.1404,0.1294,0.1274,0.1226,0.1332,0.124,0.128,0.1317,0.1186,0.092,0.0919,0.0918,0.0917,0,0,0.1124,0.117,0.1193,0.1286,0.1359,0.1433,0.1472,0.1521,0.1519,0.1465,0.1376,0.1272,0.1238,0.0975,0.0949,0.0975,0.114,0.0949,0.15,0.1425,0.1462,0.1548,0.1385,0,0,0,0,0]},{"header":{"parameterUnit":"m.s-1","parameterCategory":2,"la1":30.2991,"la2":30.254,"lo1":-89.0895,"lo2":-89.0444,"dy":0.0017,"dx":0.0017,"nx":28,"ny":28,"refTime":"2025-07-31T03:00:00:Z","depth":"2","parameterNumber":3,"parameterNumberName":"V-component_of_CURRENTS"},"data":[0,0,0,0,0,0,0,0,0,0,0,0,0,0,0,0,0,0,0,0,0,0,0,0,0,0,0,0,0,0,0,0,0,0,0,0,0,0,0,0,0,0,0,0,0,0,0,0,0,0,0,0,0,0,0,0,0,0,0.0132,0.0131,0,0.0136,0.0136,0.0136,0.008,0.0078,0.0076,0.0075,-0.0047,-0.0049,-0.005,0,0,0,0,0,0,0,0,0,0,0,0,0,0.0152,0.0151,0.0132,0.0131,0.0131,0.0136,0.0136,0.0136,0.008,0.0078,0.0076,0.0074,-0.0046,-0.0048,-0.005,0,0,0,0,0,0,0,0,0,0,0,0,0,0.015,0.0151,0.0132,0.0103,0.01,0.0136,0.0136,0.0136,0.008,0.0078,0.0075,0.0073,-0.0046,-0.0048,-0.0051,-0.0016,0,0,-0.0058,-0.006,0,0,0,0,0,0,0,0,0.015,0.0149,0.0107,0.0105,0.0102,0.0103,0.0098,0.0078,0.0081,0.009,0.0075,0.0072,-0.0008,-0.0013,-0.0003,-0.0022,-0.0027,-0.0059,-0.006,-0.0061,-0.0062,0,0,0,0,0,0,0,0.015,0.0149,0.0135,0.0107,0.0104,0.0116,0.0112,0.0095,0.0054,0.0089,0.0084,0.0083,-0.001,-0.0,-0.0007,-0.0029,-0.0059,-0.0061,-0.0062,-0.0063,-0.0206,-0.0209,0,0,0,0,0,0,0.0145,0.0149,0.0135,0.0135,0.0118,0.0117,0.0113,0.0107,0.0057,0.0047,0.0085,0.008,0.0005,-0.0004,-0.0011,-0.0091,-0.0061,-0.0064,-0.0065,-0.0204,-0.0207,-0.0209,0,0,0,0,0,0,0.0145,0.0144,0.0134,0.0141,0.014,0.0119,0.0112,0.0108,0.0073,0.0055,0.0043,0.0048,0.0003,-0.0008,-0.0066,-0.0092,-0.0065,-0.0067,-0.0201,-0.0205,-0.0208,-0.0175,0,0,0,0,0,0,0.0146,0.0144,0.0125,0.014,0.014,0.0126,0.0115,0.011,0.0078,0.007,0.0021,0.001,0.0,-0.0062,-0.0069,-0.0095,-0.0069,-0.0198,-0.0203,-0.0207,-0.0173,-0.0177,-0.018,0,0,0,0,0,0.0147,0.0138,0.0124,0.0121,0.0118,0.0126,0.0126,0.0105,0.0078,0.0063,0.0022,0.0009,-0.0095,-0.0065,-0.0072,-0.01,-0.0196,-0.0202,-0.0207,-0.0172,-0.0176,-0.018,0,0,0,0,0,0,0.0121,0.0132,0.0116,0.0104,0.0099,0.0115,0.0099,0.0085,0.0048,0.002,-0.0001,-0.0014,-0.008,-0.0101,-0.0068,-0.0162,-0.0156,-0.0163,-0.0127,-0.0131,-0.0135,-0.0093,-0.0071,0,0,0,0,0,0.0112,0.0113,0.0115,0.0099,0.0094,0.0089,0.0082,0.0065,0.0044,0.0023,-0.0014,-0.0064,-0.0096,-0.0124,-0.0161,-0.0196,-0.0208,-0.0231,-0.0234,-0.0236,-0.0213,-0.0254,-0.0257,-0.0226,-0.0226,-0.0226,0,0,0.0099,0.0102,0.01,0.0095,0.0088,0.0086,0.0077,0.0054,0.0044,0.0016,-0.0037,-0.0078,-0.0112,-0.0156,-0.0189,-0.0182,-0.0258,-0.0243,-0.0244,-0.0218,-0.026,-0.0262,-0.0264,-0.023,-0.0229,-0.0228,0,0,0.0086,0.0071,0.0068,0.0063,0.0046,0.0056,0.0039,0.0023,0.0,-0.0036,-0.007,-0.0121,-0.0178,-0.0196,-0.021,-0.0257,-0.0276,-0.0298,-0.027,-0.0312,-0.0313,-0.0314,-0.0342,-0.0346,-0.0296,-0.0296,-0.0295,0,0.0061,0.0065,0.0065,0.0056,0.0058,0.0038,0.0034,0.0021,-0.0019,-0.0027,-0.0065,-0.0141,-0.0184,-0.0203,-0.0226,-0.0259,-0.0284,-0.0241,-0.031,-0.0312,-0.0313,-0.0342,-0.0346,-0.0295,-0.0295,-0.0295,-0.0295,0,0.0052,0.0046,0.0042,0.0038,0.0035,0.0028,0.0019,-0.0004,-0.0035,-0.0045,-0.0097,-0.0146,-0.0179,-0.0222,-0.0231,-0.0271,-0.0286,-0.0307,-0.0283,-0.0313,-0.0343,-0.0349,-0.0293,-0.0293,-0.0294,-0.0294,0,0,0.004,0.0039,0.0037,0.0047,0.0028,0.004,0.002,0.0027,0.0033,-0.0039,-0.0034,-0.0111,-0.014,-0.0159,-0.0199,-0.0238,-0.0284,-0.0275,-0.0278,-0.0272,-0.0371,-0.0319,-0.032,-0.032,-0.032,-0.0321,-0.0389,0,0.0037,0.0041,0.0039,0.0052,0.0065,0.0054,0.0058,0.0047,0.0034,0.0026,-0.0032,-0.0055,-0.0114,-0.013,-0.0181,-0.025,-0.0296,-0.0263,-0.0368,-0.0371,-0.0295,-0.0323,-0.0315,-0.0369,-0.0394,-0.0395,-0.0395,0,0.0044,0.0055,0.0064,0.0101,0.0104,0.0104,0.0139,0.0137,0.0123,0.0107,0.0071,0.0028,-0.0027,-0.0083,-0.0204,-0.0182,-0.0272,-0.0336,-0.0341,-0.0297,-0.0328,-0.0346,-0.0377,-0.0404,-0.0403,-0.0403,-0.0402,0,0.0084,0.009,0.0112,0.0113,0.0131,0.014,0.0154,0.0155,0.018,0.0162,0.0172,0.0093,0.0069,-0.0057,-0.0181,-0.0202,-0.0312,-0.036,-0.0399,-0.0397,-0.0408,-0.0404,-0.0455,-0.0455,-0.0455,-0.0455,-0.0455,0,0.0121,0.0145,0.0133,0.0146,0.0189,0.0182,0.0228,0.0234,0.025,0.029,0.0218,0.0242,0.0072,-0.0006,-0.015,-0.0267,-0.0292,-0.0382,-0.0407,-0.0399,-0.0394,-0.0438,-0.0435,-0.0457,-0.0457,-0.0456,-0.0456,0,0.0187,0.0167,0.0201,0.0206,0.021,0.0244,0.0285,0.033,0.033,0.0383,0.0381,0.035,0.0266,0.0102,-0.0078,-0.0197,-0.0336,-0.038,-0.0344,-0.0362,-0.0408,-0.0403,-0.0435,-0.0434,-0.0433,-0.0432,-0.0431,0,0.023,0.0249,0.0246,0.0258,0.0262,0.0302,0.0339,0.0364,0.0422,0.0463,0.0505,0.0455,0.0458,0.024,0.0008,-0.0214,-0.0274,-0.0349,-0.0384,-0.0382,-0.0405,-0.0402,-0.0399,-0.0409,-0.0408,-0.0407,-0.0407,0,0.0326,0.0306,0.0327,0.0328,0.0357,0.0417,0.0471,0.0534,0.0577,0.0645,0.0733,0.0743,0.055,0.0352,0.006,-0.0087,-0.0311,-0.0337,-0.0362,-0.0391,-0.0356,-0.0378,-0.0377,-0.04,-0.0401,-0.0401,-0.0401,-0.0402,0.0387,0.0413,0.0398,0.0415,0.045,0.0525,0.0597,0.0684,0.0807,0.0911,0.091,0.0881,0.0553,0.0192,-0.0003,-0.0205,-0.022,-0.0349,-0.0353,-0.0358,-0.0318,-0.028,-0.0303,-0.0303,-0.0303,-0.0303,-0.0303,0,0.0444,0.0454,0.0484,0.0505,0.0563,0.0555,0.0684,0.0786,0.0953,0.0982,0.1068,0.0739,0.0514,0.0203,-0.0083,-0.0262,-0.0293,-0.0315,-0.0352,-0.0357,-0.0361,-0.0323,-0.031,-0.031,-0.031,-0.0311,0,0,0.0475,0.0498,0.0509,0.0593,0.0616,0.0717,0.0798,0.0966,0.1014,0.1088,0.1002,0.0851,0.0445,0.0174,-0.0053,-0.0155,-0.0203,-0.0168,-0.0147,-0.0166,-0.0168,-0.0368,-0.0312,0,0,0,0,0]}],[{"header":{"parameterUnit":"m.s-1","parameterCategory":2,"la1":30.2991,"la2":30.254,"lo1":-89.0895,"lo2":-89.0444,"dy":0.0017,"dx":0.0017,"nx":28,"ny":28,"refTime":"2025-07-31T03:00:00:Z","depth":"4","parameterNumber":2,"parameterNumberName":"U-component_of_CURRENTS"},"data":[0,0,0,0,0,0,0,0,0,0,0,0,0,0,0,0,0,0,0,0,0,0,0,0,0,0,0,0,0,0,0,0,0,0,0,0,0,0,0,0,0,0,0,0,0,0,0,0,0,0,0,0,0,0,0,0,0,0,0.0165,0.0165,0,0.0171,0.0171,0.017,0.017,0.017,0.017,0.017,0.0139,0.0138,0.0137,0,0,0,0,0,0,0,0,0,0,0,0,0,0.0126,0.0127,0.0165,0.0165,0.0166,0.0171,0.0171,0.017,0.017,0.017,0.017,0.017,0.014,0.0138,0.0137,0,0,0,0,0,0,0,0,0,0,0,0,0,0.0135,0.0127,0.0165,0.0168,0.0169,0.0171,0.017,0.017,0.017,0.017,0.017,0.0171,0.014,0.0139,0.0137,0.0121,0,0,0.0132,0.0132,0,0,0,0,0,0,0,0,0.0135,0.0136,0.0168,0.0168,0.0169,0.0173,0.0146,0.0153,0.0169,0.0166,0.017,0.0171,0.0149,0.0147,0.0143,0.0119,0.0118,0.0132,0.0131,0.0131,0.013,0,0,0,0,0,0,0,0.0134,0.0136,0.0164,0.0168,0.0169,0.0161,0.0162,0.0147,0.0152,0.0166,0.0167,0.0173,0.0149,0.0144,0.0142,0.0117,0.0132,0.0131,0.013,0.0129,0.0071,0.007,0,0,0,0,0,0,0.0142,0.0135,0.0163,0.0164,0.0156,0.0162,0.0163,0.0168,0.0153,0.0152,0.0173,0.0173,0.0147,0.0144,0.0141,0.0121,0.0131,0.0129,0.0128,0.0072,0.0071,0.007,0,0,0,0,0,0,0.0141,0.0144,0.0163,0.0153,0.0155,0.0163,0.0168,0.0168,0.0171,0.0159,0.0157,0.0176,0.0147,0.0143,0.0128,0.0119,0.0128,0.0127,0.0072,0.0071,0.0071,0.008,0,0,0,0,0,0,0.0139,0.0143,0.0152,0.0153,0.0156,0.0166,0.0168,0.0168,0.0176,0.0176,0.0161,0.0158,0.0147,0.013,0.0126,0.0117,0.0126,0.0073,0.0072,0.0071,0.008,0.0079,0.0079,0,0,0,0,0,0.0138,0.0147,0.0152,0.0156,0.0167,0.0167,0.0167,0.0171,0.0176,0.0174,0.0164,0.0159,0.012,0.0129,0.0124,0.0115,0.0074,0.0072,0.0071,0.0081,0.008,0.0079,0,0,0,0,0,0,0.0135,0.0148,0.0154,0.0167,0.0169,0.0168,0.0176,0.0174,0.0165,0.0169,0.0154,0.015,0.0129,0.0121,0.0131,0.0093,0.0095,0.0093,0.0104,0.0102,0.0102,0.0122,0.0124,0,0,0,0,0,0.014,0.0152,0.0157,0.0169,0.0174,0.0175,0.0178,0.0178,0.0172,0.017,0.0159,0.0143,0.0118,0.0112,0.0091,0.0075,0.0079,0.0065,0.0064,0.0063,0.0076,0.0059,0.0059,0.0066,0.0066,0.0066,0,0,0.0144,0.0154,0.0161,0.017,0.0176,0.0178,0.0177,0.0184,0.0182,0.0167,0.0161,0.0139,0.0112,0.009,0.0081,0.0085,0.0064,0.0061,0.0061,0.0074,0.0058,0.0057,0.0057,0.0065,0.0065,0.0065,0,0,0.0153,0.0167,0.0177,0.0179,0.019,0.0188,0.0192,0.0191,0.0187,0.0176,0.0159,0.0135,0.011,0.0085,0.0069,0.0052,0.0057,0.0044,0.0061,0.0044,0.0044,0.0044,0.0059,0.006,0.0047,0.0047,0.0047,0,0.0158,0.0173,0.0179,0.0185,0.0192,0.0194,0.0199,0.0192,0.0184,0.0179,0.0177,0.0129,0.0106,0.0072,0.0066,0.005,0.0058,0.0068,0.0045,0.0044,0.0044,0.006,0.0061,0.0048,0.0048,0.0048,0.0048,0,0.0168,0.0182,0.019,0.02,0.0203,0.021,0.0205,0.0203,0.0201,0.0191,0.0164,0.013,0.0108,0.0085,0.0073,0.0052,0.0064,0.0043,0.0052,0.0044,0.0061,0.0062,0.0048,0.0048,0.0048,0.0048,0,0,0.0168,0.0193,0.0196,0.0209,0.0213,0.0218,0.0214,0.0209,0.021,0.0189,0.0184,0.0132,0.0127,0.0109,0.0082,0.0064,0.0065,0.0062,0.0061,0.0088,0.0061,0.0085,0.0089,0.0044,0.0044,0.0044,0.0079,0,0.0176,0.0201,0.0204,0.0222,0.0236,0.0233,0.023,0.0223,0.0215,0.0208,0.017,0.0157,0.0132,0.0127,0.0103,0.007,0.0067,0.006,0.0057,0.0058,0.0087,0.009,0.0043,0.008,0.008,0.008,0.008,0,0.0177,0.0199,0.0223,0.0246,0.025,0.0254,0.026,0.0258,0.0241,0.0237,0.0219,0.02,0.0173,0.0153,0.0113,0.0114,0.0101,0.0075,0.0075,0.0098,0.0083,0.0084,0.0082,0.0082,0.0082,0.0082,0.0082,0,0.018,0.0209,0.0236,0.0242,0.0262,0.0267,0.0275,0.0266,0.0274,0.0266,0.0276,0.0236,0.0233,0.0192,0.0155,0.0141,0.0116,0.0085,0.0098,0.0101,0.0065,0.0065,0.007,0.007,0.007,0.007,0.007,0,0.0182,0.02,0.0243,0.0255,0.028,0.0287,0.0305,0.0304,0.0312,0.0321,0.0302,0.0283,0.0245,0.0224,0.0177,0.0153,0.014,0.0115,0.0109,0.0069,0.0069,0.0067,0.0066,0.0072,0.0071,0.0071,0.0071,0,0.0167,0.0199,0.0231,0.0269,0.0283,0.03,0.0337,0.0346,0.0361,0.0375,0.0384,0.0345,0.0305,0.0277,0.0216,0.0201,0.0157,0.0154,0.0149,0.014,0.0151,0.015,0.0175,0.0176,0.0177,0.0178,0.0179,0,0.0159,0.0177,0.024,0.0268,0.0285,0.032,0.0339,0.0365,0.0379,0.0386,0.0384,0.0371,0.034,0.0281,0.023,0.0194,0.0176,0.0198,0.0145,0.0169,0.0161,0.0158,0.0156,0.018,0.018,0.018,0.0181,0,0.0134,0.0162,0.0192,0.0261,0.0296,0.0331,0.0364,0.0368,0.0393,0.0433,0.0394,0.0368,0.0332,0.0262,0.0274,0.0219,0.0201,0.0207,0.0204,0.0154,0.0175,0.0165,0.0162,0.0184,0.0183,0.0183,0.0183,0,0.0112,0.0129,0.0185,0.0241,0.0302,0.0321,0.0329,0.0347,0.0366,0.0395,0.0363,0.0321,0.0317,0.0273,0.024,0.0242,0.022,0.0225,0.022,0.0216,0.0209,0.0241,0.0276,0,0,0,0,0,0.0091,0.0116,0.0162,0.0225,0.0293,0.0321,0.0345,0.0347,0.0373,0.0362,0.0378,0.0336,0.03,0.0242,0.0246,0.0227,0.0206,0.0232,0.0206,0.0202,0.0198,0.0184,0,0,0,0,0,0,0.0074,0.0118,0.0147,0.0216,0.0257,0.0308,0.0309,0.0311,0.0301,0.0331,0.0287,0.0361,0.0291,0.0309,0.0252,0.0251,0.024,0.0234,0.0235,0.0204,0.0201,0.0198,0.0182,0,0,0,0,0]},{"header":{"parameterUnit":"m.s-1","parameterCategory":2,"la1":30.2991,"la2":30.254,"lo1":-89.0895,"lo2":-89.0444,"dy":0.0017,"dx":0.0017,"nx":28,"ny":28,"refTime":"2025-07-31T03:00:00:Z","depth":"4","parameterNumber":3,"parameterNumberName":"V-component_of_CURRENTS"},"data":[0,0,0,0,0,0,0,0,0,0,0,0,0,0,0,0,0,0,0,0,0,0,0,0,0,0,0,0,0,0,0,0,0,0,0,0,0,0,0,0,0,0,0,0,0,0,0,0,0,0,0,0,0,0,0,0,0,0,0.0174,0.0174,0,0.0124,0.0124,0.0123,0.0118,0.0119,0.0119,0.012,0.0082,0.008,0.0078,0,0,0,0,0,0,0,0,0,0,0,0,0,0.0236,0.0235,0.0174,0.0174,0.0173,0.0125,0.0124,0.0123,0.0118,0.0119,0.0119,0.012,0.0082,0.008,0.0078,0,0,0,0,0,0,0,0,0,0,0,0,0,0.02,0.0235,0.0175,0.0165,0.0164,0.0125,0.0124,0.0123,0.0118,0.0119,0.0119,0.012,0.0083,0.008,0.0078,0.0046,0,0,0.0071,0.007,0,0,0,0,0,0,0,0,0.0202,0.0197,0.0167,0.0166,0.0165,0.0129,0.0132,0.0098,0.0118,0.0135,0.012,0.0121,0.0098,0.0095,0.0082,0.0044,0.0043,0.0071,0.0069,0.0068,0.0068,0,0,0,0,0,0,0,0.0204,0.0199,0.0154,0.0167,0.0165,0.0154,0.015,0.0125,0.0112,0.0133,0.0133,0.0128,0.0098,0.0084,0.0081,0.0042,0.0071,0.0069,0.0067,0.0066,-0.0038,-0.0039,0,0,0,0,0,0,0.0212,0.0202,0.0155,0.0152,0.0186,0.0152,0.0148,0.0139,0.0112,0.0109,0.0127,0.0128,0.0088,0.0084,0.008,0.0042,0.0068,0.0066,0.0065,-0.0036,-0.0038,-0.0039,0,0,0,0,0,0,0.0214,0.0208,0.0158,0.0177,0.017,0.0151,0.0141,0.0137,0.0127,0.0108,0.0105,0.0121,0.0089,0.0083,0.0045,0.0041,0.0065,0.0063,-0.0035,-0.0037,-0.0039,-0.0035,0,0,0,0,0,0,0.0216,0.0209,0.0203,0.0177,0.0169,0.0128,0.014,0.0136,0.0123,0.0123,0.0101,0.0098,0.0089,0.0048,0.0043,0.0038,0.0061,-0.0033,-0.0036,-0.0038,-0.0033,-0.0037,-0.0039,0,0,0,0,0,0.0218,0.0201,0.0203,0.0198,0.0162,0.0127,0.0121,0.011,0.0122,0.0106,0.0088,0.0099,0.0029,0.0045,0.0039,0.0033,-0.0032,-0.0035,-0.0038,-0.0032,-0.0036,-0.0039,0,0,0,0,0,0,0.0226,0.0198,0.02,0.0177,0.0154,0.0126,0.0112,0.0109,0.0082,0.0086,0.0075,0.007,0.0034,0.0025,0.0044,-0.0007,0.0002,-0.0002,0.0009,0.0005,0.0002,0.0008,0.0059,0,0,0,0,0,0.0225,0.0207,0.0181,0.0164,0.0153,0.0135,0.0121,0.0113,0.0088,0.0079,0.0064,0.0043,0.0014,0.0004,-0.0025,-0.0054,-0.0058,-0.0062,-0.0065,-0.0067,-0.0069,-0.0093,-0.0097,-0.0049,-0.0049,-0.0049,0,0,0.0226,0.0208,0.0199,0.0165,0.0149,0.0126,0.0128,0.0103,0.0085,0.0077,0.0047,0.0028,0.0001,-0.0034,-0.0049,-0.0038,-0.0082,-0.0071,-0.0073,-0.0073,-0.0096,-0.0101,-0.0105,-0.0052,-0.0051,-0.0051,0,0,0.0217,0.02,0.0184,0.0162,0.0135,0.0118,0.0112,0.0083,0.0069,0.0035,0.0024,-0.0003,-0.0039,-0.0062,-0.0076,-0.0117,-0.0103,-0.0119,-0.0121,-0.0144,-0.0147,-0.0151,-0.015,-0.0153,-0.0113,-0.0113,-0.0113,0,0.0225,0.0197,0.0174,0.0153,0.0135,0.0116,0.0096,0.0072,0.0035,0.0017,0.0025,-0.0038,-0.0054,-0.0099,-0.0107,-0.0121,-0.0122,-0.0099,-0.0145,-0.0149,-0.0152,-0.015,-0.0154,-0.0113,-0.0113,-0.0113,-0.0113,0,0.0205,0.0183,0.0169,0.0139,0.0115,0.0089,0.0058,0.0033,0.0022,0.0001,-0.0045,-0.0073,-0.0103,-0.0114,-0.0119,-0.0153,-0.0142,-0.0148,-0.0128,-0.0156,-0.0153,-0.0157,-0.0114,-0.0114,-0.0114,-0.0114,0,0,0.022,0.0168,0.0164,0.0146,0.0104,0.0079,0.0046,0.0002,-0.002,-0.0051,-0.0082,-0.0124,-0.0126,-0.0144,-0.0155,-0.0171,-0.0187,-0.0161,-0.0162,-0.0146,-0.0217,-0.0212,-0.0215,-0.0195,-0.0196,-0.0197,-0.02,0,0.0214,0.0177,0.015,0.0112,0.0086,0.0054,0.0023,-0.0016,-0.0047,-0.0084,-0.0116,-0.0146,-0.0142,-0.0146,-0.0166,-0.019,-0.0198,-0.0184,-0.0205,-0.0205,-0.0186,-0.022,-0.02,-0.0202,-0.0203,-0.0204,-0.0204,0,0.0201,0.0175,0.0143,0.009,0.0077,0.0058,0.0005,-0.0025,-0.0081,-0.0101,-0.0134,-0.0156,-0.0189,-0.0177,-0.0218,-0.0206,-0.0207,-0.0219,-0.022,-0.022,-0.0208,-0.0175,-0.0211,-0.021,-0.021,-0.0209,-0.0209,0,0.0211,0.0164,0.0138,0.0121,0.0067,0.0051,0.0027,-0.0025,-0.0052,-0.0102,-0.012,-0.0169,-0.0183,-0.0208,-0.0221,-0.0218,-0.0261,-0.0262,-0.0259,-0.0257,-0.0259,-0.0255,-0.0288,-0.0288,-0.0288,-0.0288,-0.0288,0,0.0198,0.0171,0.0146,0.0128,0.0099,0.0065,0.0034,0.0001,-0.0041,-0.007,-0.0115,-0.0144,-0.019,-0.0221,-0.0231,-0.0254,-0.0265,-0.0266,-0.0267,-0.0256,-0.0253,-0.026,-0.0257,-0.0288,-0.0288,-0.0288,-0.0288,0,0.0186,0.0173,0.0142,0.0109,0.0101,0.0084,0.0051,0.0025,-0.0007,-0.0044,-0.0053,-0.0125,-0.0166,-0.0206,-0.0249,-0.0261,-0.0286,-0.0285,-0.0257,-0.0255,-0.0261,-0.0258,-0.0292,-0.0292,-0.0292,-0.0292,-0.0292,0,0.0162,0.0154,0.014,0.0136,0.0122,0.0101,0.0085,0.0049,0.0032,-0.003,-0.0045,-0.0103,-0.0146,-0.0212,-0.0249,-0.028,-0.028,-0.0285,-0.0291,-0.0269,-0.0266,-0.0262,-0.0259,-0.0293,-0.0293,-0.0293,-0.0293,0,0.0121,0.0137,0.0121,0.0134,0.0128,0.0103,0.0089,0.0075,0.0038,0.0016,-0.0045,-0.01,-0.0155,-0.0214,-0.0237,-0.0258,-0.0286,-0.0286,-0.0286,-0.0291,-0.0269,-0.0266,-0.0262,-0.0293,-0.0293,-0.0293,-0.0293,0,0.01,0.0094,0.0111,0.0119,0.0126,0.0111,0.0087,0.0064,0.0039,-0.0012,-0.0027,-0.0102,-0.0141,-0.0201,-0.0223,-0.0248,-0.0256,-0.0259,-0.0261,-0.0261,-0.0255,-0.0223,-0.024,0,0,0,0,0,0.0078,0.0086,0.0091,0.01,0.0118,0.0127,0.0096,0.0073,0.0052,0.0015,-0.0006,-0.0055,-0.013,-0.0176,-0.0201,-0.0219,-0.0255,-0.0248,-0.0258,-0.0293,-0.0293,-0.0292,0,0,0,0,0,0,0.0059,0.0072,0.0085,0.0105,0.0123,0.0122,0.0108,0.0076,0.0053,0.0028,-0.0017,-0.0035,-0.011,-0.0097,-0.0187,-0.0198,-0.0205,-0.028,-0.028,-0.0293,-0.0293,-0.0293,-0.0292,0,0,0,0,0]}]]